Regional Weather Roundup
Issued by NWS

Home | Current Version | Previous Version | Text Only | Print | Product List | Glossary On
Versions: 1 2 3 4 5 6 7 8 9 10 11 12 13 14 15 16 17 18 19 20 21 22 23 24 25 26 27 28 29 30 31 32 33 34 35 36 37 38 39 40 41 42 43 44 45 46 47 48 49 50
000
ASUS43 KLSX 280907
RWRMO

WEATHER SUMMARY FOR MISSOURI
NATIONAL WEATHER SERVICE SPRINGFIELD MO
300 AM CST TUE FEB 28 2017

NOTE: "FAIR" INDICATES FEW OR NO CLOUDS BELOW 12,000 FEET WITH NO
       SIGNIFICANT WEATHER AND/OR OBSTRUCTIONS TO VISIBILITY.
       CURRENT SKY AND/OR WEATHER CONDITIONS ARE NOT AVAILABLE FOR
       CHILLICOTHE AND FARMINGTON.

MOZ001>031-035>038-043-044-053-054-281000-
...NORTHERN AND WESTERN MISSOURI...

CITY           SKY/WX    TMP DP  RH WIND       PRES   REMARKS
KANSAS CTY INT CLOUDY    62  57  83 S21       29.68F
KANSAS C DTWN  CLOUDY    64  57  78 S17G25    29.69F
LEE`S SUMMIT   CLOUDY    63  57  81 S22G32    29.72F
ST JOSEPH      CLOUDY    62  57  83 S17       29.65F
CHILLICOTHE      N/A     61  54  77 S10       29.72F
KIRKSVILLE     CLOUDY    59  51  75 S15       29.75F

$$
MOZ066>068-077>081-088>096-101>105-281000-
...SOUTHWEST MISSOURI...

CITY           SKY/WX    TMP DP  RH WIND       PRES   REMARKS
SPRINGFIELD    CLOUDY    58  54  86 S20G26    29.84F
JOPLIN         PTCLDY    61  59  93 S20       29.79F
BRANSON        MOCLDY    59  57  94 S9        29.89F

$$
MOZ032>034-039>042-045>050-055>058-069>072-281000-
...CENTRAL MISSOURI...

CITY           SKY/WX    TMP DP  RH WIND       PRES   REMARKS
COLUMBIA       CLOUDY    58  52  80 S14       29.81F
JEFFERSON CITY CLOUDY    59  51  75 S9        29.83F
ROLLA          CLOUDY    56  53  90 S15G23    29.85F
SEDALIA        CLOUDY    61  55  81 S18       29.79F
WHITEMAN AFB   CLOUDY    60  60 100 S14       29.75F
WARRENSBURG    CLOUDY    61  54  77 S13G22    29.74F
OSAGE BEACH    CLOUDY    58  53  84 S9        29.85F

$$
MOZ051-052-059>065-281000-
...EAST CENTRAL MISSOURI...

CITY           SKY/WX    TMP DP  RH WIND       PRES   REMARKS
ST LOUIS INTL  MOCLDY    57  51  80 S9        29.91F
SPIRIT OF STL  MOCLDY    57  52  83 VRB5      29.89F
ST CHARLES     CLOUDY    55  52  89 SE8       29.89F

$$
MOZ072>076-082>087-097>100-106>115-281000-
...SOUTH CENTRAL AND SOUTHEAST MISSOURI...

CITY           SKY/WX    TMP DP  RH WIND       PRES   REMARKS
CAPE GIRARDEAU CLOUDY    54  50  86 S7        29.99F
FARMINGTON     CLOUDY    54  52  93 S7        29.95F
POPLAR BLUFF   CLOUDY    55  53  93 S6        29.98F
WEST PLAINS    CLOUDY    55  53  93 S12       29.93F

$$



USA.gov is the U.S. government's official web portal to all federal, state and local government web resources and services.